Kuchera_Ratio
0.0 0.0 0.0 0.0 0.0 0.0 0.0 0.0 0.0 0.0 0.0 0.0 0.0 0.0 0.0 0.0 0.0 0.0 0.0 0.0 0.0 0.0 0.0 0.0 0.0 0.0 0.0 0.0 0.0 0.0 0.0 0.0 0.0 0.0 0.0 0.0 0.0 0.0 0.0 0.0 0.0 0.0 0.0
0.0 0.0 0.0 0.0 0.0 0.0 0.0 0.0 0.0 0.0 0.0 0.0 0.0 0.0 0.0 0.0 0.0 0.0 0.0 0.0 0.0 0.0 0.0 0.0 0.0 0.0 0.0 0.0 0.0 0.0 0.0 0.0 0.0 0.0 0.0 0.0 0.0 0.0 0.0 0.0 0.0 0.0 0.0
0.0 0.0 0.0 0.0 0.0 0.0 0.0 0.0 0.0 0.0 0.0 0.0 0.0 0.0 0.0 0.0 0.0 0.0 0.0 0.0 0.0 0.0 0.0 0.0 0.0 0.0 0.0 0.0 0.0 0.0 0.0 0.0 0.0 0.0 0.0 0.0 0.0 0.0 0.0 0.0 0.0 0.0 0.0
0.0 0.0 0.0 0.0 0.0 0.0 0.0 0.0 0.0 0.0 0.0 0.0 0.0 0.0 0.0 0.0 0.0 0.0 0.0 0.0 0.0 0.0 0.0 0.0 0.0 0.0 0.0 0.0 0.0 0.0 0.0 0.0 0.0 0.0 0.0 0.0 0.0 0.0 0.0 0.0 0.0 0.0 0.0
0.0 0.0 0.0 0.0 0.0 0.0 0.0 0.0 0.0 0.0 0.0 0.0 0.0 0.0 0.0 0.0 0.0 0.0 0.0 0.0 0.0 0.0 0.0 0.0 0.0 0.0 0.0 0.0 0.0 0.0 0.0 0.0 0.0 0.0 0.0 0.0 0.0 0.0 0.0 0.0 0.0 0.0 0.0
0.0 0.0 0.0 0.0 0.0 0.0 0.0 0.0 0.0 0.0 0.0 0.0 0.0 0.0 0.0 0.0 0.0 0.0 0.0 0.0 0.0 0.0 0.0 0.0 0.0 0.0 0.0 0.0 0.0 0.0 0.0 0.0 0.0 0.0 0.0 0.0 0.0 0.0 0.0 0.0 0.0 0.0 0.0
0.0 0.0 0.0 0.0 0.0 0.0 0.0 0.0 0.0 0.0 0.0 0.0 0.0 0.0 0.0 0.0 0.0 0.0 0.0 0.0 0.0 0.0 0.0 0.0 0.0 0.0 0.0 0.0 0.0 0.0 0.0 0.0 0.0 0.0 0.0 0.0 0.0 0.0 0.0 0.0 0.0 0.0 0.0
2.9 1.4 0.0 0.0 0.0 0.0 0.0 0.0 0.0 0.0 0.0 0.0 0.0 0.0 0.0 0.0 0.0 0.0 0.0 0.0 0.0 0.0 0.0 0.0 0.0 0.0 0.0 0.0 0.0 0.0 0.0 0.0 0.0 0.0 0.0 0.0 0.0 0.0 0.0 0.0 0.0 0.0 0.0
6.2 4.9 2.9 0.0 0.9 0.3 0.0 0.0 0.0 0.0 0.0 0.0 0.0 0.0 0.0 0.0 0.0 0.0 0.0 0.0 0.0 0.0 0.0 0.0 0.0 0.0 0.0 0.0 0.0 0.0 0.0 0.0 0.0 0.0 0.0 0.0 0.0 0.0 0.0 0.0 0.0 0.0 0.0
7.6 6.9 4.7 4.1 5.2 5.3 4.7 5.4 1.7 2.1 0.0 0.0 0.0 0.0 0.0 0.0 0.0 0.0 0.0 0.0 0.0 0.0 0.0 0.0 0.0 0.0 0.0 0.0 0.0 0.0 0.0 0.0 0.0 0.0 0.0 0.0 0.0 0.0 0.0 0.0 0.0 0.0 0.0
7.7 8.1 7.3 6.7 7.4 7.3 5.5 5.7 6.5 6.5 5.3 5.6 3.8 4.0 0.0 0.0 0.0 0.0 0.0 0.0 0.0 0.0 0.0 0.0 0.0 0.0 0.0 0.0 0.0 0.0 0.0 0.0 0.0 0.0 0.1 0.0 0.0 1.6 0.4 0.9 2.7 2.7 3.7
7.7 9.3 8.6 7.7 7.6 8.1 7.8 7.7 7.5 7.5 7.7 7.1 6.1 6.3 5.9 5.3 5.4 4.5 2.6 2.1 1.3 3.2 3.3 3.0 1.6 1.5 0.4 1.2 1.7 1.3 1.7 0.6 1.1 1.8 5.2 4.4 3.8 5.6 4.6 5.0 5.4 5.9 6.7
7.1 10.1 10.8 10.8 10.4 9.9 8.8 8.2 8.2 8.8 8.7 8.0 8.1 6.8 9.1 8.7 9.0 7.7 7.7 7.7 7.2 6.5 5.9 6.2 5.4 5.0 7.0 5.2 2.1 4.2 6.8 6.2 5.3 6.2 6.8 6.0 6.3 7.2 7.9 8.6 9.1 9.8 10.6
6.7 9.3 11.1 12.5 12.5 12.3 11.5 10.6 9.9 8.9 9.4 9.7 9.1 9.2 8.6 9.9 10.1 8.7 8.7 9.1 8.3 9.3 8.5 9.7 8.0 8.5 9.3 7.5 7.1 8.1 8.6 9.0 9.2 9.5 9.9 10.5 10.9 11.2 11.9 12.2 12.6 12.9 13.4
7.5 8.1 9.5 11.3 12.7 13.1 12.8 12.8 12.7 12.2 12.1 12.7 12.5 12.2 12.3 12.3 9.9 8.3 8.5 9.5 9.7 10.1 10.3 10.9 12.2 12.7 12.1 12.3 12.3 12.4 12.7 12.3 12.3 13.3 13.1 13.0 13.3 13.1 13.0 12.4 12.7 13.3 14.6
10.9 10.7 10.7 10.3 12.4 13.0 13.8 14.1 10.5 10.9 9.5 9.1 9.1 11.1 10.3 8.7 7.5 7.3 7.7 8.1 8.9 9.9 12.5 13.8 13.7 14.0 13.5 12.6 13.6 14.3 14.4 14.3 14.3 14.4 14.5 14.5 14.9 14.9 14.9 14.5 13.8 14.1 15.3
12.7 12.3 11.9 11.5 11.5 12.1 13.9 14.7 16.0 14.0 10.3 10.3 9.7 9.1 8.3 7.9 7.7 8.1 8.3 8.7 9.1 11.5 14.9 15.3 15.6 15.9 15.7 15.8 15.8 15.9 15.8 15.4 14.9 15.6 16.0 16.1 15.6 15.7 16.5 16.6 16.6 16.3 15.8
13.5 12.7 13.7 13.9 13.4 13.3 13.3 13.5 15.0 16.2 16.8 15.9 12.2 11.9 10.3 9.3 8.7 8.7 9.9 12.1 14.9 14.4 15.3 16.1 16.2 16.1 16.2 16.4 16.4 16.6 16.8 16.7 16.9 17.1 17.4 17.2 17.2 17.4 17.8 17.9 17.8 17.8 17.4
14.1 13.9 13.3 13.9 13.8 14.1 14.3 14.5 15.3 16.2 17.1 17.3 16.5 14.5 13.9 12.4 12.5 12.5 13.0 16.2 17.0 17.2 17.0 17.4 17.3 16.9 17.1 17.1 18.0 18.1 18.2 18.2 18.4 18.6 18.7 18.4 17.8 17.9 18.3 18.1 18.2 18.1 18.3
14.0 14.4 14.3 14.9 15.0 15.0 14.9 16.1 16.9 17.6 18.1 18.4 18.2 17.3 16.5 16.7 18.4 18.7 18.1 18.2 18.4 18.4 18.5 18.7 18.8 18.9 18.9 18.9 19.3 19.7 19.8 19.7 19.9 20.0 19.8 19.2 18.9 18.7 19.0 19.1 19.2 19.0 20.1
14.6 15.5 15.6 15.8 15.7 16.2 16.2 16.4 17.6 18.6 19.1 19.1 18.9 17.8 17.7 18.4 19.4 19.7 19.6 20.0 19.7 19.7 19.8 20.1 20.2 20.2 20.5 20.8 20.7 21.0 21.1 21.1 21.2 21.5 21.6 20.6 20.2 20.1 19.5 19.7 20.0 20.5 20.8
16.4 16.3 16.5 16.5 16.8 17.2 17.1 16.7 17.4 18.2 18.5 18.7 18.9 18.9 19.7 19.8 20.0 20.4 21.2 21.2 21.2 21.3 21.7 22.0 22.0 22.0 22.1 22.1 22.5 22.6 22.6 22.7 22.7 23.0 23.0 22.4 21.9 21.2 20.7 20.5 20.7 21.2 21.5
17.0 17.1 17.0 17.2 17.4 17.5 18.2 18.4 18.2 18.5 19.0 19.5 20.0 20.6 21.0 21.6 22.0 21.8 22.2 23.0 22.8 23.0 22.9 22.9 23.0 23.4 23.6 23.8 23.6 23.5 23.7 24.1 23.9 24.0 24.1 23.8 23.3 22.7 22.4 22.4 22.3 22.4 22.0
18.6 18.6 17.9 17.8 18.1 18.2 18.6 18.9 19.2 19.5 19.7 20.1 20.5 21.0 21.7 22.2 22.7 23.3 23.7 24.0 24.2 24.0 23.3 23.7 24.1 24.2 24.4 24.7 24.7 24.6 24.6 24.8 25.1 25.3 25.2 24.6 24.4 23.8 23.4 23.5 23.3 23.0 22.9
19.8 19.9 20.1 19.6 20.0 19.4 19.5 19.6 20.0 20.3 20.7 21.0 21.4 21.7 21.7 22.7 23.5 23.8 24.1 24.5 23.7 24.0 23.8 23.3 23.6 25.0 25.5 25.3 25.4 25.7 25.7 25.5 25.6 25.9 25.9 25.6 25.3 24.8 24.8 24.5 24.2 24.1 24.0
20.8 20.8 20.9 20.9 21.3 21.3 21.4 21.2 21.6 21.5 21.6 22.0 22.2 22.4 22.9 23.4 24.1 24.4 24.6 25.0 24.6 24.4 23.7 23.4 24.5 25.9 26.0 26.0 26.3 26.5 26.5 26.1 26.3 26.5 26.9 26.7 26.5 26.0 25.7 25.8 25.5 25.0 25.0